Weather reports worldwide

Advertisment
Coningsby, United Kingdom (3391): temperature & dewpoint: 18.04.2019 08:00:00 - 24.04.2019 08:00:00 (BST)Coningsby, United Kingdom (3391): temperature -20cm & temperature -100cm: 18.04.2019 08:00:00 - 24.04.2019 08:00:00 (BST)Coningsby, United Kingdom (3391): wind speed: 18.04.2019 08:00:00 - 24.04.2019 08:00:00 (BST)Coningsby, United Kingdom (3391): wind direction: 18.04.2019 08:00:00 - 24.04.2019 08:00:00 (BST)Coningsby, United Kingdom (3391): reduced air pressure: 18.04.2019 08:00:00 - 24.04.2019 08:00:00 (BST)Coningsby, United Kingdom (3391): visibility: 18.04.2019 08:00:00 - 24.04.2019 08:00:00 (BST)Coningsby, United Kingdom (3391): precipitation: 18.04.2019 08:00:00 - 24.04.2019 08:00:00 (BST)
Date & Time tt [°C] td [°C] tt -20cm [°C] tt -100cm [°C] ff [km/h] ff [kn] dd ppp [hPa] vv [km] rr [mm]
24.04.2019 08:00:00 - - - - - - - - - -
24.04.2019 07:00:00 7,2 6,4 - - 5 3 WNW 993,3 5 0,0
24.04.2019 06:00:00 7,0 6,2 - - 8 4 NNW 993,4 5 0,0
24.04.2019 05:00:00 7,1 6,5 - - 8 4 NNW 993,7 6 0,0
24.04.2019 04:00:00 7,6 6,7 - - 8 4 N 994,2 6 0,0
24.04.2019 03:00:00 8,1 7,0 - - 8 4 N 994,8 7 0,0
24.04.2019 02:00:00 8,4 7,1 - - 9 5 N 995,2 8 0,0
24.04.2019 01:00:00 9,1 7,3 - - 5 3 N 995,9 9 0,0
24.04.2019 00:00:00 9,6 7,4 - - 8 4 NNE 996,3 10 0,0
23.04.2019 23:00:00 9,6 7,4 - - 9 5 NNE 996,8 10 0,0
23.04.2019 22:00:00 11,1 7,5 - - 15 8 ENE 997,3 10 0,0
23.04.2019 21:00:00 11,3 7,7 - - 15 8 ENE 997,8 10 0,0
23.04.2019 20:00:00 12,2 8,1 - - 18 10 ENE 997,7 13 0,0
23.04.2019 19:00:00 13,3 8,1 - - 18 10 ENE 997,9 10 0,0
23.04.2019 18:00:00 14,3 7,2 - - 24 13 ENE 997,7 18 0,0
23.04.2019 17:00:00 15,4 6,7 - - 29 16 ENE 997,9 10 0,0
23.04.2019 16:00:00 15,5 6,1 - - 24 13 E 998,4 10 0,0
23.04.2019 15:00:00 15,6 6,9 - - 26 14 E 998,7 10 0,0
23.04.2019 14:00:00 16,4 6,6 - - 21 11 ENE 999,0 10 0,0
23.04.2019 13:00:00 15,3 7,5 - - 16 9 E 999,6 10 0,0
23.04.2019 12:00:00 14,2 7,4 - - 18 10 E 999,9 10 0,0
23.04.2019 11:00:00 13,2 7,7 - - 22 12 E 1000,0 10 0,0
23.04.2019 10:00:00 12,2 7,6 9,2 10,0 26 14 E 1000,2 10 0,0
23.04.2019 09:00:00 11,8 7,6 - - 24 13 E 1000,1 10 0,0
23.04.2019 08:00:00 11,2 7,0 - - 22 12 E 1000,3 10 0,0
23.04.2019 07:00:00 10,7 6,8 - - 18 10 E 1000,4 10 0,0
23.04.2019 06:00:00 10,3 6,7 - - 16 9 E 1000,5 20 0,0
23.04.2019 05:00:00 10,7 7,1 - - 15 8 E 1000,7 10 0,0
23.04.2019 04:00:00 10,4 6,9 - - 16 9 E 1001,1 10 0,0
23.04.2019 03:00:00 10,7 7,1 - - 15 8 E 1001,4 10 0,0
23.04.2019 02:00:00 11,2 7,4 - - 16 9 E 1001,7 10 0,0
23.04.2019 01:00:00 11,6 7,2 - - 16 9 E 1002,3 10 0,0
23.04.2019 00:00:00 12,8 7,2 - - 13 7 E 1002,7 10 0,0
22.04.2019 23:00:00 13,3 7,3 - - 15 8 E 1003,0 10 0,0
22.04.2019 22:00:00 13,4 7,7 - - 16 9 E 1003,3 10 0,0
22.04.2019 21:00:00 12,9 7,5 - - 18 10 ENE 1003,5 10 0,0
22.04.2019 20:00:00 14,2 7,2 - - 16 9 ENE 1003,5 10 0,0
22.04.2019 19:00:00 16,3 7,6 - - 22 12 E 1003,6 10 0,0
22.04.2019 18:00:00 18,7 7,9 - - 22 12 E 1003,6 10 0,0
22.04.2019 17:00:00 20,2 6,7 - - 28 15 E 1003,9 12 0,0
22.04.2019 16:00:00 21,4 6,6 - - 28 15 E 1004,5 15 0,0
22.04.2019 15:00:00 21,9 6,0 - - 29 16 E 1005,3 18 0,0
22.04.2019 14:00:00 21,5 6,1 - - 26 14 E 1006,1 15 0,0
22.04.2019 13:00:00 21,6 8,6 - - 21 11 E 1006,8 10 0,0
22.04.2019 12:00:00 19,6 7,9 - - 16 9 E 1007,8 12 0,0
22.04.2019 11:00:00 17,5 8,5 - - 15 8 E 1008,4 10 0,0
22.04.2019 10:00:00 14,7 9,0 9,7 10,0 13 7 E 1009,2 10 0,0
22.04.2019 09:00:00 12,5 7,5 - - 13 7 E 1009,7 10 0,0
22.04.2019 08:00:00 9,3 5,1 - - 9 5 E 1010,1 10 0,0
22.04.2019 07:00:00 7,6 3,0 - - 5 3 NNE 1010,3 8 0,0
22.04.2019 06:00:00 4,2 1,9 - - 4 2 NE 1010,8 7 0,0
22.04.2019 05:00:00 6,2 3,6 - - 5 3 ENE 1011,2 7 0,0
22.04.2019 04:00:00 6,1 3,7 - - 5 3 E 1012,0 8 0,0
22.04.2019 03:00:00 6,4 4,0 - - 9 5 E 1012,9 10 0,0
22.04.2019 02:00:00 6,9 4,4 - - 8 4 E 1013,5 10 0,0
22.04.2019 01:00:00 7,8 4,4 - - 9 5 E 1014,1 10 0,0
22.04.2019 00:00:00 8,6 5,3 - - 9 5 E 1014,6 10 0,0
21.04.2019 23:00:00 8,6 5,2 - - 11 6 E 1014,9 10 0,0
21.04.2019 22:00:00 9,8 5,4 - - 15 8 E 1015,2 10 0,0
21.04.2019 21:00:00 11,8 5,8 - - 15 8 E 1015,3 20 0,0
21.04.2019 20:00:00 14,3 5,0 - - 13 7 E 1015,5 10 0,0
21.04.2019 19:00:00 17,4 5,5 - - 16 9 ENE 1015,8 10 0,0
21.04.2019 18:00:00 19,6 6,1 - - 18 10 E 1016,2 10 0,0
21.04.2019 17:00:00 21,0 6,8 - - 21 11 E 1016,9 10 0,0
21.04.2019 16:00:00 21,7 7,3 - - 9 5 SE 1017,7 18 0,0
21.04.2019 15:00:00 21,4 5,8 - - 13 7 SE 1018,6 20 0,0
21.04.2019 14:00:00 20,9 5,4 - - 16 9 ESE 1019,5 10 0,0
21.04.2019 13:00:00 20,4 5,6 - - 15 8 ESE 1020,5 18 0,0
21.04.2019 12:00:00 19,6 4,9 - - 13 7 SE 1021,3 18 0,0
21.04.2019 11:00:00 17,7 5,8 - - 11 6 ESE 1022,2 10 0,0
21.04.2019 10:00:00 16,4 7,1 8,7 9,7 9 5 ESE 1023,0 10 0,0
21.04.2019 09:00:00 13,4 7,5 - - 8 4 E 1023,6 10 0,0
21.04.2019 08:00:00 10,4 6,7 - - 2 1 E 1023,9 10 0,0
21.04.2019 07:00:00 6,5 4,2 - - 4 2 N 1024,4 7 0,0
21.04.2019 06:00:00 6,1 5,1 - - 4 2 N 1024,6 7 0,0
21.04.2019 05:00:00 4,7 3,5 - - 5 3 E 1025,1 5 0,0
21.04.2019 04:00:00 5,4 3,8 - - 5 3 E 1025,7 5 0,0
21.04.2019 03:00:00 6,6 4,3 - - 4 2 E 1026,5 7 0,0
21.04.2019 02:00:00 7,3 5,5 - - 5 3 E 1027,0 7 0,0
21.04.2019 01:00:00 6,1 4,3 - - 5 3 ESE 1027,5 8 0,0
21.04.2019 00:00:00 7,2 4,5 - - 8 4 E 1028,1 8 0,0
20.04.2019 23:00:00 9,7 5,1 - - 8 4 E 1028,5 10 0,0
20.04.2019 22:00:00 10,5 5,4 - - 15 8 E 1028,7 10 0,0
20.04.2019 21:00:00 11,6 6,0 - - 13 7 E 1028,8 10 0,0
20.04.2019 20:00:00 13,7 6,4 - - 15 8 E 1028,7 10 0,0
20.04.2019 19:00:00 17,4 7,3 - - 15 8 E 1028,8 20 0,0
20.04.2019 18:00:00 19,1 7,5 - - 21 11 E 1029,2 10 0,0
20.04.2019 17:00:00 20,5 7,3 - - 16 9 E 1029,5 10 0,0
20.04.2019 16:00:00 21,0 7,5 - - 16 9 E 1029,9 10 0,0
20.04.2019 15:00:00 22,2 8,8 - - 16 9 E 1030,4 25 0,0
20.04.2019 14:00:00 21,2 7,2 - - 16 9 ENE 1030,9 25 0,0
20.04.2019 13:00:00 20,2 6,9 - - 15 8 ENE 1031,6 10 0,0
20.04.2019 12:00:00 20,0 7,4 - - 13 7 NE 1031,9 10 0,0
20.04.2019 11:00:00 18,3 9,1 - - 8 4 NE 1032,1 10 0,0
20.04.2019 10:00:00 15,2 9,0 8,9 9,7 4 2 N 1032,2 10 0,0
20.04.2019 09:00:00 10,1 7,3 - - 5 3 NW 1032,3 8 0,0
20.04.2019 08:00:00 5,9 4,7 - - 5 3 NW 1032,5 5 0,0
20.04.2019 07:00:00 4,9 4,2 - - 5 3 NNW 1032,2 5 0,0
20.04.2019 06:00:00 4,2 3,5 - - 8 4 NNW 1032,2 3,0 0,0
20.04.2019 05:00:00 5,0 4,3 - - 8 4 NNW 1031,9 4,0 0,0
20.04.2019 04:00:00 5,8 5,2 - - 9 5 NNW 1032,3 4,5 0,0
20.04.2019 03:00:00 5,9 5,2 - - 5 3 N 1032,6 5 0,0
20.04.2019 02:00:00 6,5 5,7 - - 5 3 NNW 1032,4 5 0,0
20.04.2019 01:00:00 7,0 5,8 - - 2 1 WNW 1032,6 6 0,0
20.04.2019 00:00:00 7,7 6,0 - - 5 3 NNE 1032,5 8 0,0
19.04.2019 23:00:00 8,3 6,4 - - 5 3 NE 1032,5 8 0,0
19.04.2019 22:00:00 9,1 6,4 - - 8 4 ENE 1032,3 10 0,0
19.04.2019 21:00:00 10,7 7,0 - - 11 6 NNE 1032,2 10 0,0
19.04.2019 20:00:00 13,2 6,3 - - 11 6 ENE 1031,4 10 0,0
19.04.2019 19:00:00 15,5 5,0 - - 18 10 ENE 1030,8 10 0,0
19.04.2019 18:00:00 17,5 6,1 - - 18 10 E 1030,5 10 0,0
19.04.2019 17:00:00 19,0 5,1 - - 21 11 ENE 1030,4 30 0,0
19.04.2019 16:00:00 20,1 6,4 - - 18 10 E 1030,4 30 0,0
19.04.2019 15:00:00 20,6 5,3 - - 21 11 E 1030,6 30 0,0
19.04.2019 14:00:00 20,4 5,1 - - 22 12 E 1030,6 30 0,0
19.04.2019 13:00:00 19,9 5,8 - - 21 11 E 1030,5 10 0,0
19.04.2019 12:00:00 19,1 6,9 - - 15 8 ENE 1030,6 21 0,0
19.04.2019 11:00:00 16,5 7,9 - - 9 5 ENE 1030,7 10 0,0
19.04.2019 10:00:00 15,5 7,2 8,4 9,4 9 5 ENE 1030,6 10 0,0
19.04.2019 09:00:00 14,4 8,1 - - 9 5 ENE 1030,2 10 0,0
19.04.2019 08:00:00 11,0 7,8 - - 11 6 NE 1029,8 10 0,0
19.04.2019 07:00:00 6,0 4,9 - - 9 5 NW 1029,8 7 0,0
19.04.2019 06:00:00 6,2 4,2 - - 8 4 NW 1029,3 6 0,0
19.04.2019 05:00:00 7,1 5,7 - - 9 5 N 1028,9 8 0,0
19.04.2019 04:00:00 6,5 4,5 - - 8 4 N 1028,8 8 0,0
19.04.2019 03:00:00 8,9 6,2 - - 8 4 N 1028,4 9 0,0
19.04.2019 02:00:00 8,6 5,8 - - 8 4 N 1028,5 10 0,0
19.04.2019 01:00:00 10,4 6,3 - - 15 8 ENE 1028,6 10 0,0
19.04.2019 00:00:00 10,3 6,4 - - 16 9 ENE 1028,6 10 0,0
18.04.2019 23:00:00 9,1 6,5 - - 13 7 E 1028,4 10 0,0
18.04.2019 22:00:00 8,9 6,5 - - 11 6 E 1028,0 10 0,0
18.04.2019 21:00:00 10,6 7,1 - - 21 11 E 1027,2 10 0,0
18.04.2019 20:00:00 11,7 7,3 - - 18 10 E 1026,7 10 0,0
18.04.2019 19:00:00 13,2 7,4 - - 21 11 E 1026,1 10 0,0
18.04.2019 18:00:00 14,5 7,4 - - 22 12 E 1025,6 10 0,0
18.04.2019 17:00:00 15,3 6,5 - - 26 14 E 1025,4 10 0,0
18.04.2019 16:00:00 16,5 6,4 - - 29 16 E 1025,2 15 0,0
18.04.2019 15:00:00 16,7 6,8 - - 29 16 ENE 1025,4 10 0,0
18.04.2019 14:00:00 17,2 6,9 - - 26 14 E 1025,4 15 0,0
18.04.2019 13:00:00 17,4 7,1 - - 22 12 ENE 1025,2 15 0,0
18.04.2019 12:00:00 17,2 7,9 - - 24 13 E 1025,3 12 0,0
18.04.2019 11:00:00 15,6 9,1 - - 22 12 ENE 1025,6 10 0,0
18.04.2019 10:00:00 14,9 10,0 8,0 9,2 21 11 ENE 1025,6 6 0,0
18.04.2019 09:00:00 12,2 9,9 - - 11 6 NE 1025,5 3,5 0,0
18.04.2019 08:00:00 10,5 9,3 - - 5 3 NNE 1025,3 3,0 0,0

tt = temperature
td = dewpoint
tt -20cm = temperature -20cm
tt -100cm = temperature -100cm
ff = wind speed
dd = wind direction
ppp = reduced air pressure
vv = visibility
rr = precipitation

Next stations